Regional Weather Roundup
Issued by NWS

Home | Current Version | Previous Version | Graphics & Text | Print | Product List | Glossary On
Versions: 1 2 3 4 5 6 7 8 9 10 11 12 13 14 15 16 17 18 19 20 21 22 23 24 25 26 27 28 29 30 31 32 33 34 35 36 37 38 39 40 41 42 43 44 45 46 47 48 49 50
987
ASUS43 KFSD 240402
RWRSD

WEATHER ROUNDUP FOR SOUTH DAKOTA
NATIONAL WEATHER SERVICE SIOUX FALLS SD
1000 PM CST THU NOV 23 2017

NOTE: "FAIR" INDICATES FEW OR NO CLOUDS BELOW 12,000 FEET WITH NO
SIGNIFICANT WEATHER AND/OR OBSTRUCTIONS TO VISIBILITY.


SDZ001>005-009-010-012>017-240500-
NORTHWEST AND NORTH CENTRAL SOUTH DAKOTA

CITY           SKY/WX    TMP DP  RH WIND       PRES   REMARKS
FAITH            N/A     55  35  47 W15       29.58F
MOBRIDGE       CLEAR     49  37  63 SE6       29.49F
$$

SDZ012>016-024>037-041>051-057-063-072>074-240500-
SOUTHWEST AND SOUTH CENTRAL SOUTH DAKOTA

CITY           SKY/WX    TMP DP  RH WIND       PRES   REMARKS
RAPID CTY ARPT CLEAR     53  32  44 W10       29.65F
PIERRE         CLEAR     54  39  57 W13       29.56F
CUSTER         CLOUDY    48  31  51 SW5       29.78F
ELLSWORTH AFB  CLEAR     58  34  40 W10       29.64F
PHILIP         CLEAR     48  37  65 W12       29.60F
PINE RIDGE     CLOUDY    53  37  54 W6        29.73F
SPEARFISH      FAIR      63  34  34 SW24G32   29.65F
WINNER         FAIR      58  39  49 SW13      29.63F
$$

SDZ004>011-016>023-039-040-240500-
NORTHEAST SOUTH DAKOTA

CITY           SKY/WX    TMP DP  RH WIND       PRES   REMARKS
ABERDEEN       CLEAR     39  36  89 S9        29.51F
WATERTOWN      CLEAR     42  37  82 S9        29.55F
BROOKINGS      CLEAR     45  37  73 S12       29.59F
SISSETON         N/A     55  41  59 SW22      29.47F
$$

SDZ017-020-022-023-036>040-048>070-240500-
SOUTHEAST SOUTH DAKOTA

CITY           SKY/WX    TMP DP  RH WIND       PRES   REMARKS
SIOUX FALLS    CLOUDY    54  42  64 SW9       29.62F
HURON          CLEAR     50  40  68 S10       29.55F
CHAMBERLAIN    CLEAR     53  40  61 SW6       29.60F
MITCHELL       CLEAR     55  41  59 SW10      29.60F
YANKTON        CLEAR     59  42  53 SW12      29.64F
$$

ABBREVIATIONS USED IN REMARKS
   TC - TEMPERATURE IN CELSIUS
  WCI - WIND CHILL INDEX
   HX - HEAT INDEX
  VSB - VISIBILITY





USA.gov is the U.S. government's official web portal to all federal, state and local government web resources and services.